Theta_e
300 294 291 294 296 297 295 293 292 296 297 293 293 294 297 297 295 295 296 295 295 295 296 299 297 296 299 301 302 300 299 299 299 298 295 293 291 291 291 292 292 291 292 292
294 291 298 300 299 297 295 292 292 295 298 293 292 293 296 296 296 297 297 295 295 294 294 297 295 297 297 297 298 298 297 296 296 295 293 292 291 290 291 291 290 290 290 290
294 297 300 298 295 294 293 291 292 292 295 293 290 289 293 297 298 297 297 296 296 293 293 296 295 295 296 297 297 297 297 295 293 293 292 292 292 291 288 288 288 289 289 289
296 300 297 294 294 294 290 296 295 293 289 285 292 283 290 294 295 294 293 292 293 293 294 296 294 294 295 296 298 296 296 295 294 294 293 291 288 286 287 287 287 288 289 289
293 293 293 293 294 296 292 295 293 291 288 287 288 285 288 292 292 292 292 291 292 292 293 294 293 293 293 294 293 293 293 293 294 292 291 288 287 287 288 288 287 287 288 288
294 296 294 294 295 295 296 292 291 289 288 281 287 287 288 292 294 292 292 291 292 292 292 292 291 292 291 291 291 290 290 289 289 289 288 288 287 287 287 286 286 286 287 287
293 293 295 296 291 292 292 288 282 280 280 280 287 286 290 293 292 294 292 291 292 292 291 288 287 288 289 288 289 287 286 286 287 287 287 287 287 286 286 285 286 285 285 285
289 287 293 295 293 290 289 289 284 277 278 280 282 281 288 290 292 294 294 293 292 291 289 287 287 286 286 286 285 285 285 286 286 287 287 287 287 287 286 286 286 285 284 284
289 290 294 294 295 295 289 286 293 286 276 276 283 286 291 289 289 291 291 291 290 289 287 286 286 286 286 285 285 285 285 285 286 286 286 285 286 286 285 285 285 284 283 284
294 288 291 289 292 292 291 294 284 286 276 277 282 284 286 286 287 289 290 290 290 289 287 286 286 286 286 286 286 285 286 285 285 286 286 286 285 286 286 285 283 283 282 281
296 291 285 288 287 289 288 286 288 290 285 280 277 282 288 290 290 289 291 291 290 289 287 286 286 286 285 285 285 285 285 285 285 285 285 285 285 285 284 283 282 281 280 279
297 292 283 285 289 292 293 290 290 284 281 283 281 285 290 291 292 291 291 292 291 290 288 286 285 285 285 284 285 284 285 284 284 285 285 284 284 283 281 280 279 279 278 278
296 289 284 286 288 290 286 290 291 291 287 283 281 284 290 291 291 291 290 291 291 290 288 286 285 284 284 284 284 284 284 284 284 284 284 282 282 280 279 278 277 278 277 276
298 290 287 285 287 288 283 286 289 289 284 283 286 287 289 288 289 291 290 291 291 290 288 286 285 284 284 284 284 284 284 285 284 284 283 281 280 279 278 277 277 276 275 274
295 285 287 290 292 289 288 287 287 286 288 284 287 288 292 295 291 292 292 291 290 290 288 287 285 285 284 284 284 284 284 284 284 283 281 279 279 278 277 276 276 275 275 274
293 284 286 286 289 289 287 289 290 289 289 288 289 288 293 291 292 289 291 291 290 290 289 287 286 284 284 284 284 283 284 284 283 282 279 279 278 277 277 276 275 275 274 273
287 285 284 282 285 286 282 286 288 290 291 291 285 290 289 288 291 289 290 291 290 291 290 288 287 285 284 284 284 284 283 283 282 280 279 278 277 276 275 275 274 273 272 271
285 285 285 283 281 276 284 283 290 289 291 292 292 292 287 289 290 289 289 290 290 291 291 289 288 287 285 285 284 284 283 282 281 279 278 277 276 275 274 272 272 271 271 270
288 285 282 279 278 282 285 280 281 283 286 289 291 289 288 286 286 287 291 293 293 292 292 291 290 288 286 284 284 282 281 280 279 277 276 275 275 273 272 270 270 270 269 268
283 283 284 279 277 277 282 280 282 286 280 286 289 288 287 285 285 292 290 290 289 290 289 288 289 286 284 282 282 280 279 278 277 277 276 275 273 272 270 270 269 267 266 267
278 279 279 281 279 281 285 280 281 277 281 280 286 288 283 285 285 283 284 284 285 285 285 285 285 283 282 281 280 279 278 277 279 277 275 273 272 270 269 267 266 264 263 266
279 278 277 281 279 276 280 279 281 283 279 279 282 284 283 281 280 281 281 281 282 282 283 282 281 280 279 280 279 278 277 279 277 274 272 270 267 269 267 263 262 261 259 258
278 280 279 281 280 280 281 281 282 282 280 279 280 282 284 281 279 279 279 279 280 280 280 279 278 276 277 278 279 277 276 275 272 271 268 266 265 266 265 261 262 261 259 260
279 279 278 279 279 279 280 281 281 281 280 280 279 280 282 279 279 279 278 279 278 277 277 275 276 275 274 274 276 275 274 272 270 268 266 264 264 263 263 265 264 262 263 262
278 278 275 275 277 278 279 280 282 281 280 279 278 279 280 279 277 278 277 276 278 277 276 276 275 274 273 272 272 272 271 270 268 266 265 265 264 264 263 264 264 265 263 264
277 277 276 276 280 280 281 282 283 281 280 279 278 277 279 280 278 278 276 277 276 275 274 274 273 273 271 272 270 269 269 269 268 266 265 265 265 264 265 264 263 272 271 272
Wind_Speed
7 5 11 15 12 12 9 10 9 9 6 4 9 11 11 13 10 10 10 10 9 8 8 8 6 6 7 6 8 8 9 6 5 6 9 8 10 9 9 10 12 12 11 11
3 10 13 7 9 8 10 11 13 8 5 5 8 13 11 10 15 18 13 9 10 9 8 8 6 7 7 8 7 8 9 8 6 6 8 7 8 9 9 8 10 11 12 10
14 5 12 11 3 5 9 9 8 8 9 5 6 11 16 13 10 10 8 8 9 12 10 8 7 8 8 9 9 9 9 10 10 11 11 10 10 8 8 8 8 9 11 10
12 11 13 7 11 8 10 8 11 9 5 6 8 11 3 7 12 13 9 8 8 10 10 8 9 9 9 8 9 11 9 10 9 10 9 11 9 11 7 8 7 8 9 9
5 5 6 9 6 7 4 4 3 4 6 8 7 11 3 4 10 17 11 10 9 10 10 9 10 10 9 8 8 7 8 7 8 11 11 10 11 9 7 7 10 9 8 9
8 4 2 6 2 2 8 5 3 2 1 9 10 11 10 11 16 6 10 11 11 12 11 10 9 11 9 8 7 6 7 7 8 9 9 10 12 10 9 7 7 6 6 6
11 13 6 4 4 3 5 6 1 3 3 9 2 10 14 5 1 6 17 15 13 13 12 13 11 11 11 11 10 8 8 8 8 9 8 8 10 9 10 8 7 7 5 4
7 5 20 12 15 7 10 8 6 7 5 4 2 9 8 3 4 3 15 17 15 15 13 13 13 11 10 11 9 9 9 10 8 10 10 8 8 7 7 8 7 6 5 5
5 5 5 5 4 10 7 8 9 3 2 1 7 7 5 0 3 6 13 15 17 16 14 14 13 11 11 10 9 10 11 10 8 8 8 8 8 9 8 9 8 6 5 6
4 3 3 3 4 3 5 5 5 4 4 6 7 9 12 6 9 8 14 17 18 17 16 14 13 13 11 9 10 9 9 11 9 9 9 9 8 9 9 9 8 7 6 7
3 2 1 4 8 12 5 5 5 6 4 4 4 8 4 3 13 17 16 17 18 17 16 14 12 11 10 8 10 9 10 11 9 7 8 9 9 10 9 8 7 7 7 7
7 3 4 8 1 4 8 10 11 7 7 6 2 14 2 5 8 12 14 16 17 17 16 15 14 13 12 11 11 10 10 9 8 9 9 9 10 9 9 8 7 6 6 6
8 4 2 3 2 3 7 10 18 11 5 13 4 9 2 5 5 8 11 14 16 17 17 16 15 14 13 12 11 11 10 9 9 10 10 8 8 9 8 8 6 6 6 6
7 5 7 11 2 5 5 8 15 16 11 5 22 12 6 3 4 6 8 13 16 17 17 16 14 14 13 12 12 12 11 10 11 11 10 9 8 9 9 7 7 6 7 7
10 9 11 20 19 2 1 4 14 21 27 12 17 19 19 10 11 12 8 11 14 16 18 17 17 16 15 15 14 13 12 11 11 12 10 9 9 9 8 7 6 6 6 6
4 4 6 15 15 16 16 13 14 15 20 18 24 31 5 3 9 6 8 11 15 14 16 16 16 17 17 17 16 13 12 13 11 11 11 11 10 9 8 6 6 6 5 5
11 7 6 8 3 6 7 24 22 19 18 21 21 31 5 5 9 13 12 12 15 16 16 18 18 17 15 16 15 15 15 13 12 12 12 11 10 9 8 7 6 6 5 5
7 7 5 3 4 6 6 2 12 19 22 21 21 16 7 7 3 3 3 11 11 11 12 14 14 15 16 16 15 14 15 15 13 13 12 10 9 8 8 7 6 5 4 4
8 6 3 5 6 5 7 5 8 10 16 15 21 8 8 6 4 5 8 8 14 17 18 18 19 21 21 20 16 16 16 14 13 12 11 10 11 10 9 7 7 4 4 4
3 3 5 3 4 8 4 3 3 3 9 8 10 9 9 7 3 12 9 8 6 8 8 8 10 8 13 13 16 17 15 15 14 14 13 11 9 10 9 8 6 3 4 4
5 4 12 11 7 5 6 6 2 7 8 4 3 5 7 7 1 3 5 5 4 4 8 8 12 14 16 16 17 17 16 16 12 12 12 10 9 8 7 6 4 5 4 3
11 11 6 6 6 10 7 4 10 4 2 2 0 4 7 6 6 5 6 6 6 7 7 7 10 10 9 13 14 14 15 12 14 13 12 10 8 7 6 7 4 4 4 4
3 6 6 8 5 1 6 2 2 1 2 2 2 3 6 7 5 7 6 7 6 7 7 6 10 10 7 9 10 13 11 13 14 12 11 9 8 6 7 7 6 3 4 3
5 2 2 4 5 5 6 5 3 4 3 1 1 3 5 4 6 6 6 6 6 5 7 5 10 10 10 6 7 9 13 12 13 12 11 9 9 7 6 6 5 5 5 5
3 7 6 3 4 4 7 7 7 6 3 1 3 2 5 7 4 6 5 6 6 7 6 8 9 9 9 7 7 11 12 13 11 10 9 9 7 8 7 6 6 6 5 6
6 7 5 6 7 4 4 10 10 8 7 6 6 2 1 6 8 6 7 7 7 8 6 6 6 7 8 9 8 8 11 12 13 10 9 8 7 7 5 6 4 13 13 14
Wind_Direction
206 204 215 215 211 242 285 301 284 289 123 185 233 247 243 196 209 214 211 187 176 171 127 116 107 101 98 82 91 93 96 88 93 104 95 86 84 77 72 65 62 57 60 58
84 234 249 237 242 229 235 257 267 281 267 164 263 265 264 197 209 204 206 186 171 135 142 137 129 114 105 106 94 89 90 89 90 87 94 99 102 90 87 82 70 65 61 57
213 189 217 231 200 245 248 234 252 253 288 200 281 264 248 248 211 199 209 180 163 151 154 150 147 130 126 121 122 114 112 106 106 105 109 107 106 93 83 74 74 62 64 61
244 238 262 245 223 190 249 219 241 252 280 251 167 283 263 265 236 188 179 182 161 150 141 149 147 135 127 120 131 130 123 122 122 130 120 110 106 107 101 94 87 75 65 64
202 178 202 203 207 200 223 29 292 213 250 290 260 284 231 214 250 211 187 174 163 149 143 151 146 130 124 121 122 112 112 115 111 103 106 107 108 105 105 103 100 91 73 66
255 112 277 210 140 274 113 86 62 46 216 255 208 216 283 229 234 164 169 169 167 147 144 137 126 133 125 118 113 110 108 94 92 101 102 112 117 119 115 109 100 91 86 74
225 221 183 150 128 14 156 132 239 292 208 242 106 225 246 289 179 172 172 167 165 155 149 140 144 146 145 136 134 130 125 112 107 106 103 106 107 110 108 103 98 93 82 61
206 236 191 167 213 157 186 188 169 222 207 273 339 242 256 4 23 129 158 159 153 156 154 154 159 156 147 144 145 135 127 116 111 112 111 105 100 100 96 96 101 95 90 85
216 232 52 142 172 180 178 213 224 31 57 353 222 263 273 219 75 114 152 160 161 162 158 163 156 156 153 153 142 137 131 123 121 115 108 101 99 101 105 95 89 89 90 85
292 247 355 91 76 293 160 175 139 116 218 235 262 247 238 226 204 199 175 175 170 166 162 166 162 157 157 146 139 133 134 130 129 124 120 116 113 101 96 93 96 95 89 83
288 200 120 126 207 180 144 214 205 159 201 206 273 256 334 201 188 189 186 179 175 171 167 166 162 155 148 143 144 143 135 132 126 114 112 110 109 105 101 98 98 99 90 85
187 13 217 204 156 239 214 189 190 167 219 230 188 251 353 46 171 176 179 177 173 174 169 166 164 156 154 153 152 146 141 136 132 128 119 116 114 112 106 101 97 100 102 93
151 210 203 274 17 318 217 209 211 225 92 225 179 263 357 39 101 169 174 174 172 173 171 167 165 166 161 158 157 151 147 143 138 129 128 123 123 114 110 111 108 103 104 88
130 183 211 236 123 125 192 213 213 206 218 174 225 263 236 162 183 176 177 176 174 176 176 170 170 169 163 163 164 156 155 150 141 134 135 133 128 125 123 122 120 114 97 88
173 218 206 240 263 146 303 274 216 212 228 209 253 244 258 259 206 198 168 160 178 182 182 180 175 171 170 167 168 162 158 150 146 141 135 133 121 116 119 122 119 104 103 108
172 221 198 253 253 255 250 231 234 239 247 250 260 261 242 121 81 105 162 165 183 189 188 186 179 173 177 173 170 165 153 152 144 144 138 133 127 129 132 128 122 127 128 114
178 184 171 247 180 206 244 229 224 228 230 226 232 243 127 198 182 171 173 173 181 191 187 187 184 178 176 175 168 168 155 146 146 143 143 139 138 143 142 139 145 143 137 123
173 184 185 208 116 223 238 336 208 214 234 230 246 249 172 173 193 226 169 172 189 180 189 184 182 177 176 168 167 157 157 153 148 142 139 137 144 149 148 150 152 147 139 166
173 165 216 197 198 332 303 187 169 173 256 220 233 218 177 143 133 246 220 205 195 184 185 185 183 182 176 177 163 147 145 146 147 149 149 155 165 157 157 156 158 151 150 182
52 13 214 149 215 218 253 212 229 105 281 212 188 179 169 153 217 253 186 189 158 174 177 169 174 157 154 153 149 146 152 151 161 170 162 162 160 164 162 158 148 147 176 186
149 178 222 234 237 253 218 195 167 115 249 328 266 215 148 192 202 79 75 50 77 115 128 125 141 155 156 153 155 161 161 170 164 143 150 155 160 158 153 136 141 168 180 149
169 171 191 203 234 258 158 89 173 202 206 233 200 155 153 139 132 130 120 129 122 124 122 126 130 138 136 150 156 160 171 157 148 148 146 151 150 157 141 152 166 175 149 144
230 189 179 184 208 256 231 178 223 163 230 226 201 172 157 144 151 144 146 144 141 127 112 100 120 118 127 155 170 166 158 144 138 140 148 146 152 145 158 166 178 162 160 175
224 163 194 90 216 216 221 243 249 208 237 149 113 153 151 146 149 147 139 138 130 124 134 119 134 151 163 163 152 151 150 144 144 146 149 156 160 163 169 181 182 172 183 194
175 135 162 270 268 293 249 222 239 220 222 121 55 123 172 149 162 147 142 144 150 154 147 157 165 169 170 151 139 144 147 144 146 148 157 162 167 178 184 199 187 196 207 188
179 166 167 220 204 174 207 199 208 195 210 199 164 162 172 168 163 151 169 171 157 161 152 158 161 149 156 159 150 148 152 156 153 157 167 173 175 180 181 183 214 226 216 226